Location: LDNL
(36.4545°S, 141.6685°E)
Time: 15:00:21
(UTC+11:00)

Altair - Visible Passes

Search period start: 23 January 2022 00:00
Search period end: 02 February 2022 00:00
Orbit: 1501 x 1683 km, 47.2° (Epoch: 22 January)

Date Brightness Start Highest point End Pass type
(mag) Time Alt. Az. Time Alt. Az. Time Alt. Az.
23 Jan 8.1 22:52:43 10° WSW 23:01:14 42° NW 23:05:56 26° N visible
24 Jan 8.0 22:27:27 10° WSW 22:36:07 46° NW 22:42:08 21° NNE visible
25 Jan 8.0 22:02:13 10° WSW 22:11:01 51° NW 22:18:24 16° NNE visible
26 Jan 7.9 21:37:00 10° WSW 21:45:54 55° NW 21:54:42 11° NNE visible
26 Jan 9.3 23:46:08 10° WNW 23:49:09 12° WNW 23:52:11 10° NW visible
27 Jan 7.9 21:11:47 10° WSW 21:20:47 60° NW 21:29:56 10° NE visible
27 Jan 9.3 23:19:54 10° W 23:24:06 14° WNW 23:28:21 10° NNW visible
28 Jan 9.3 22:54:01 10° W 22:59:04 16° NW 23:04:11 10° NNW visible
29 Jan 9.2 22:28:18 10° W 22:34:01 18° NW 22:39:48 10° NNW visible
30 Jan 9.2 22:02:41 10° W 22:08:58 21° NW 22:15:18 10° N visible
31 Jan 9.1 21:37:11 10° W 21:43:54 23° NW 21:50:43 10° N visible
01 Feb 9.1 21:11:43 10° WSW 21:18:50 26° NW 21:26:03 10° N visible
